THOR AGENA B DEB, 1951

Orbit data source: Space-Track

THOR AGENA B DEB, 1951 is space debris in LEO originally from a launch on Mon, 29 Nov 1965 UTC launched from the Air Force Western Test Range (AFWTR). Debris objects in space refer to the collection of defunct objects orbiting the Earth. Examples of debris include non-operational satellites, rocket bodies, and fragments generated from explosions, collisions, or faulty payload assembly.

Loading next visibility...
Identifier
1951, 1965-098G
Orbit
LEO
Country
Flag of USUS
Related business
Manufacturer
Unknown
Mission
Spacecraft
Bus & Motor
Unknown
Mass
~1 kg wet, ~1 kg dry
Launch date (UTC)
1965-11-29 (60 years ago)
Launch vehicle
Unknown
Launch site
Air Force Western Test Range (AFWTR)
Object type
Payload
Rocket body
Debris
Shape & HBR
Unknown
Radar Cross Section
Medium (>0.1 m² and <1 m²)

Expand to show TLE details & history
Last TLE update: 13 hours ago

TLE from 13 hours ago
0 THOR AGENA B DEB
1 01951U 65098G   26149.95463108  .00002738  00000-0  50297-3 0  9998
2 01951  79.6111 324.5672 0764039 302.4006  50.5398 13.58135436805154
Epoch: 2026-05-29T22:54Z
TLE epoch observation values (Epoch: 2026-05-29T22:54:40.125Z)
Latitude
-0.00008°
Longitude
93.4224°
Altitude
712.658 km
Speed
7.665 km/s
True Right ascension
21h 38m 16s
True Declination
0° 00' 00"
Sunlit
Object was in daylight at epoch
Visualization orbit readout
Latitude
Unknown
Longitude
Unknown
Altitude
Unknown
Speed
Unknown
Apparent Right ascension
Unknown
Apparent Declination
Unknown
Sunlit
N/A
Visualization observer readout
Local Sidereal Time
21:24:09
Azimuth
Unknown
Elevation
Unknown
Doppler factor
Unknown
Orbital elements
Apogee altitude
1,606.537 km
Perigee altitude
473.022 km
Semi-major axis
7,417.917 km
Eccentricity
0.0764
Inclination
79.6111°
RAAN
324.5672°
Arg. of periapsis
302.4006°
True anomaly
57.71607°
Mean anomaly
50.5398°
Eccentric anomaly
54.08519°
Mean motion
3.39719 °/min
Orbital period
105.97 mins
BSTAR
0.00050297
Loading maneuver chart data...
Computing Atmospheric mass density...
Loading historical data...
Loading historical data...
Loading historical data...
Loading historical data...
Loading historical data...
Loading historical data...
Loading historical data...

Documentation

Showing up to 5 results
|